CZ-6A DEB, 54386

Orbit data source: Space-Track

CZ-6A DEB, 54386 is space debris in SSO originally from a launch on Fri, 11 Nov 2022 UTC launched from the Taiyaun Space Center, China (TSC). Debris objects in space refer to the collection of defunct objects orbiting the Earth. Examples of debris include non-operational satellites, rocket bodies, and fragments generated from explosions, collisions, or faulty payload assembly.

Loading next visibility...
Identifier
54386, 2022-151DJ
Orbit
SSO
Country
Flag of CNCN / PRC
Related business
Manufacturer
SAST
Mission
Spacecraft
Bus & Motor
Unknown
Mass
Unknown
Launch date (UTC)
2022-11-11 (4 years ago)
Launch vehicle
Unknown
Launch site
Taiyaun Space Center, China (TSC)
Object type
Payload
Rocket body
Debris
Shape & HBR
Unknown shape, 0.1 m
Radar Cross Section
Medium (>0.1 m² and <1 m²)

Expand to show TLE details & history
Last TLE update: 2 days ago

TLE from 2 days ago
0 CZ-6A DEB
1 54386U 22151DJ  26171.41627647  .00000240  00000-0  18517-3 0  9992
2 54386  98.9295 151.2950 0129289  77.9794 283.5826 13.97930805183198
Epoch: 2026-06-20T09:59Z
TLE epoch observation values (Epoch: 2026-06-20T09:59:26.287Z)
Latitude
-0.00007°
Longitude
92.80427°
Altitude
882.896 km
Speed
7.421 km/s
True Right ascension
10h 05m 10s
True Declination
0° 00' 00"
Sunlit
Object was in daylight at epoch
Visualization orbit readout
Latitude
Unknown
Longitude
Unknown
Altitude
Unknown
Speed
Unknown
Apparent Right ascension
Unknown
Apparent Declination
Unknown
Sunlit
N/A
Visualization observer readout
Local Sidereal Time
21:31:31
Azimuth
Unknown
Elevation
Unknown
Doppler factor
Unknown
Orbital elements
Apogee altitude
992.242 km
Perigee altitude
804.093 km
Semi-major axis
7,276.304 km
Eccentricity
0.01293
Inclination
98.9295°
RAAN
151.295°
Arg. of periapsis
77.9794°
True anomaly
282.13716°
Mean anomaly
283.5826°
Eccentric anomaly
282.86041°
Mean motion
3.49685 °/min
Orbital period
102.95 mins
BSTAR
0.00018517
Loading maneuver chart data...
Computing Atmospheric mass density...
Loading historical data...
Loading historical data...
Loading historical data...
Loading historical data...
Loading historical data...
Loading historical data...
Loading historical data...

Documentation

Showing up to 5 results
|